Home   Weather   Sharjah   Past weeks

Flag for United Arab Emirates Past Weather in Sharjah, Sharjah, United Arab Emirates — Yesterday and Last 2 Weeks

Now
106 °F

Clear.


Feels Like: 107 °F
Forecast: 92 / 105 °F
Wind: 3 mph from Northwest

Location: Sharjah International Airport

Current Time: Aug 21, 2017 at 12:28:14 pm

Latest Report: Aug 21, 2017 at 11:00 am


Visibility: 5 mi

Pressure: 29.56 "Hg

Humidity: 22%

Dew Point: 59 °F

Location of SharjahLocation

Past Weather in Sharjah — Graph

°F

Sharjah Temperature Yesterday

Maximum temperature yesterday: 111 °F (at 1:00 pm)
Minimum temperature yesterday: 88 °F (at 5:00 am)
Average temperature yesterday: 99 °F

High & Low Weather Summary for the Past Weeks

 TemperatureHumidityPressure
High113 °F (Aug 7, 12:00 pm)89% (Aug 10, 5:00 am)29.68 "Hg (Aug 10, 5:00 am)
Low84 °F (Aug 9, 6:00 am)12% (Aug 7, 12:00 pm)29.42 "Hg (Aug 6, 5:00 pm)
Average98 °F44%29.52 "Hg
* Reported Aug 6 11:00 am — Aug 21 11:00 am, Sharjah. Weather by CustomWeather, © 2017

Note: Actual official high and low records may vary slightly from our data, if they occured in-between our weather recording intervals... More about our weather records

Advertising

Sharjah Weather History for the Previous 24 Hours

Scroll right to see more
 ConditionsComfort  
Time TempWeatherWind HumidityBarometerVisibility
11:00 am
Mon, Aug 21
106 °FClear.3 mph22%29.56 "Hg5 mi
10:00 am102 °FClear.6 mph26%29.56 "Hg5 mi
9:00 am99 °FClear.8 mph29%29.56 "Hg4 mi
8:00 am95 °FClear.7 mph34%29.56 "Hg4 mi
7:00 am93 °FClear.3 mph44%29.56 "Hg4 mi
6:00 am88 °FSunny.2 mph62%29.53 "Hg10 mi
5:00 am91 °FClear.3 mph56%29.53 "Hg10 mi
4:00 am86 °FClear.2 mph84%29.50 "Hg5 mi
3:00 am88 °FClear.2 mph84%29.50 "Hg5 mi
2:00 am88 °FClear.5 mph84%29.50 "Hg5 mi
1:00 am90 °FClear.5 mph79%29.53 "Hg10 mi
12:00 am91 °FClear.6 mph63%29.53 "Hg10 mi
11:00 pm
Sun, Aug 20
95 °FClear.5 mph47%29.53 "Hg10 mi
10:00 pm99 °FClear.6 mph29%29.53 "Hg10 mi
9:00 pm104 °FClear.3 mph21%29.50 "Hg10 mi
8:00 pm100 °FClear.3 mph35%29.50 "Hg10 mi
7:00 pm104 °FClear.1 mph31%29.47 "Hg10 mi
6:00 pm106 °FSunny.9 mph28%29.47 "Hg10 mi
5:00 pm106 °FSunny.12 mph34%29.50 "Hg10 mi
4:00 pm106 °FSunny.14 mph34%29.50 "Hg10 mi
3:00 pm106 °FSunny.15 mph38%29.50 "Hg10 mi
2:00 pm109 °FSunny.8 mph30%29.50 "Hg10 mi
1:00 pm111 °FPassing clouds.5 mph18%29.53 "HgN/A
12:00 pm109 °FPassing clouds.6 mph23%29.56 "HgN/A
Weather by CustomWeather, © 2017

See weather overviewHow to use our weather pages